GW2706 Weather Reports


time (UTC)temp
F
wind
direction
speed
knots
gust
knots
rain 1hr
in
rain 24hr
in
rain mn
in
humidity
%
barometer
mb
20260505100958 63 144 4.3 6.1 0.00 0.00 0.00 71 1006.3
20260505100455 63 146 5.2 7.0 0.00 0.00 0.00 71 1006.4
20260505095951 63 167 3.5 5.2 0.00 0.00 0.00 73 1006.4
20260505095448 63 170 0.9 4.3 0.00 0.00 0.00 74 1006.3
20260505094944 63 150 0.9 4.3 0.00 0.00 0.00 74 1006.3
20260505094441 63 143 2.6 2.6 0.00 0.00 0.00 72 1006.3
20260505093937 63 122 0.9 1.7 0.00 0.00 0.00 71 1006.2
20260505093434 64 139 1.7 2.6 0.00 0.00 0.00 71 1006.4
20260505092931 64 152 2.6 2.6 0.00 0.00 0.00 70 1006.4
20260505092429 63 142 2.6 2.6 0.00 0.00 0.00 71 1006.5
20260505091926 63 146 2.6 2.6 0.00 0.00 0.00 73 1006.6
20260505091424 63 115 1.7 2.6 0.00 0.00 0.00 73 1006.8
20260505090922 63 149 0.9 2.6 0.00 0.00 0.00 75 1006.5
20260505090420 62 149 0.0 0.0 0.00 0.00 0.00 77 1006.7
20260505085917 62 169 0.0 0.0 0.00 0.00 0.00 78 1007.0
20260505085415 62 153 0.0 0.0 0.00 0.00 0.00 78 1006.9
20260505084913 63 153 0.0 0.0 0.00 0.00 0.00 77 1007.1
20260505084410 63 151 0.0 0.0 0.00 0.00 0.00 77 1006.7
20260505083909 63 151 0.0 0.0 0.00 0.00 0.00 75 1007.0
20260505083406 63 164 0.0 0.9 0.00 0.00 0.00 73 1006.9
20260505082901 63 157 0.0 0.0 0.00 0.00 0.00 73 1007.0
20260505082357 64 150 0.0 0.0 0.00 0.00 0.00 74 1007.0
20260505081854 64 172 0.0 0.9 0.00 0.00 0.00 70 1007.1
20260505081351 63 102 0.0 0.0 0.00 0.00 0.00 73 1007.1
20260505080848 63 125 0.0 0.9 0.00 0.00 0.00 75 1007.1
20260505080344 63 130 0.0 0.0 0.00 0.00 0.00 73 1007.2
20260505075839 63 143 0.0 0.0 0.00 0.00 0.00 72 1007.2
20260505075336 63 164 0.0 0.0 0.00 0.00 0.00 71 1007.4
20260505074834 64 131 0.0 0.0 0.00 0.00 0.00 70 1007.5
20260505074331 64 126 0.0 0.0 0.00 0.00 0.00 70 1007.6
20260505073828 64 128 0.0 0.0 0.00 0.00 0.00 69 1007.5
20260505073326 64 130 0.0 0.0 0.00 0.00 0.00 68 1007.4
20260505072823 65 99 0.9 0.9 0.00 0.00 0.00 68 1007.4
20260505072319 65 135 0.0 0.9 0.00 0.00 0.00 66 1007.2
20260505071815 66 138 0.0 0.9 0.00 0.00 0.00 65 1007.1
20260505071312 66 134 0.0 0.9 0.00 0.00 0.00 64 1007.3
20260505070810 66 128 1.7 2.6 0.00 0.00 0.00 64 1006.9
20260505070306 66 118 0.0 2.6 0.00 0.00 0.00 63 1006.5
20260505065801 66 112 1.7 6.1 0.00 0.00 0.00 63 1006.6
20260505065258 66 67 2.6 4.3 0.00 0.00 0.00 64 1006.5
20260505064755 66 141 3.5 5.2 0.00 0.00 0.00 64 1006.4
20260505064252 66 127 2.6 4.3 0.00 0.00 0.00 64 1006.4
20260505063750 66 103 2.6 4.3 0.00 0.00 0.00 64 1006.9
20260505063246 66 93 1.7 2.6 0.00 0.00 0.00 64 1006.8
20260505062742 66 131 0.9 2.6 0.00 0.00 0.00 64 1007.0
20260505062241 66 100 4.3 5.2 0.00 0.00 0.00 63 1006.7
20260505061737 66 122 0.0 2.6 0.00 0.00 0.00 63 1007.0
20260505061235 66 128 1.7 2.6 0.00 0.00 0.00 63 1006.9
20260505060732 67 147 0.9 2.6 0.00 0.00 0.00 63 1006.9
20260505060229 67 138 1.7 1.7 0.00 0.00 0.00 62 1007.0
20260505055724 67 106 3.5 5.2 0.00 0.00 0.00 61 1006.9
20260505055221 67 88 3.5 7.0 0.00 0.00 0.00 61 1007.1
20260505054718 67 86 2.6 4.3 0.00 0.00 0.00 61 1007.0
20260505054216 67 72 4.3 5.2 0.00 0.00 0.00 61 1007.1
20260505053714 67 149 2.6 7.8 0.00 0.00 0.00 61 1007.1
20260505053210 67 135 0.9 4.3 0.00 0.00 0.00 61 1007.3
20260505052708 68 59 2.6 4.3 0.00 0.00 0.00 61 1007.2
20260505052204 68 122 0.9 4.3 0.00 0.00 0.00 61 1007.5
20260505051701 68 170 0.9 1.7 0.00 0.00 0.00 61 1007.6
20260505051200 68 97 1.7 6.1 0.00 0.00 0.00 60 1007.5
20260505050657 68 104 1.7 4.3 0.00 0.00 0.00 60 1007.3
20260505050155 68 153 0.9 2.6 0.00 0.00 0.00 59 1007.4
20260505041625 69 108 2.6 4.3 0.00 0.00 0.00 57 1007.7
20260505041122 69 119 4.3 5.2 0.00 0.00 0.00 57 1007.5
20260505040619 70 141 2.6 5.2 0.00 0.00 0.00 56 1007.9
20260505040116 70 143 2.6 6.1 0.00 0.00 0.00 56 1007.9
20260505035612 70 118 2.6 4.3 0.00 0.00 0.00 56 1007.6
20260505035109 70 133 2.6 6.1 0.00 0.00 0.00 55 1007.6
20260505034606 70 137 2.6 4.3 0.00 0.00 0.00 55 1007.9
20260505034102 70 130 2.6 6.1 0.00 0.00 0.00 55 1007.8
20260505033559 70 166 0.9 7.0 0.00 0.00 0.00 55 1007.8
20260505033058 71 75 2.6 7.0 0.00 0.00 0.00 55 1007.7
20260505032555 71 135 2.6 2.6 0.00 0.00 0.00 55 1007.7
20260505032051 71 217 0.9 6.1 0.00 0.00 0.00 54 1007.6
20260505031549 71 83 4.3 7.0 0.00 0.00 0.00 54 1007.6
20260505031045 71 126 2.6 5.2 0.00 0.00 0.00 54 1007.3
20260505030542 71 146 2.6 6.1 0.00 0.00 0.00 54 1007.1
20260505030038 71 113 4.3 7.8 0.00 0.00 0.00 54 1007.2
20260505025534 71 142 0.9 2.6 0.00 0.00 0.00 54 1007.4
20260505025033 71 149 3.5 5.2 0.00 0.00 0.00 54 1007.4
20260505024529 71 104 1.7 5.2 0.00 0.00 0.00 54 1007.4
20260505024027 71 64 2.6 2.6 0.00 0.00 0.00 54 1007.3
20260505023523 72 149 1.7 2.6 0.00 0.00 0.00 53 1007.3
20260505023021 72 99 3.5 7.0 0.00 0.00 0.00 52 1007.3
20260505022519 72 86 2.6 4.3 0.00 0.00 0.00 52 1007.2
20260505022016 72 138 2.6 5.2 0.00 0.00 0.00 52 1007.0
20260505021512 72 126 0.9 5.2 0.00 0.00 0.00 52 1006.9
20260505021009 72 91 3.5 6.1 0.00 0.00 0.00 52 1006.9
20260505020503 73 132 0.0 4.3 0.00 0.00 0.00 51 1006.8
20260505020000 73 103 3.5 5.2 0.00 0.00 0.00 50 1006.7
20260505015458 73 110 2.6 6.1 0.00 0.00 0.00 50 1006.6
20260505014954 73 65 2.6 7.0 0.00 0.00 0.00 49 1006.6
20260505014451 73 79 2.6 6.1 0.00 0.00 0.00 48 1006.8
20260505013949 73 120 1.7 5.2 0.00 0.00 0.00 48 1006.6
20260505013445 74 120 2.6 2.6 0.00 0.00 0.00 49 1006.6
20260505012943 74 154 2.6 4.3 0.00 0.00 0.00 48 1006.6
20260505012441 74 145 1.7 4.3 0.00 0.00 0.00 48 1006.5
20260505011937 74 174 2.6 4.3 0.00 0.00 0.00 48 1006.5
20260505011433 74 74 2.6 4.3 0.00 0.00 0.00 48 1006.6
20260505010930 75 120 0.9 4.3 0.00 0.00 0.00 47 1006.5
20260505010426 75 122 0.9 1.7 0.00 0.00 0.00 47 1006.6
20260505005922 75 141 0.9 1.7 0.00 0.00 0.00 46 1006.3
20260505005419 75 138 2.6 4.3 0.00 0.00 0.00 45 1006.6
20260505004917 76 104 2.6 2.6 0.00 0.00 0.00 46 1006.5
20260505004413 76 128 1.7 6.1 0.00 0.00 0.00 45 1006.4
20260505003910 76 151 3.5 4.3 0.00 0.00 0.00 45 1006.2
20260505003407 77 145 2.6 6.1 0.00 0.00 0.00 45 1006.4
20260505002904 77 155 4.3 6.1 0.00 0.00 0.00 44 1006.2
20260505002400 77 138 1.7 8.7 0.00 0.00 0.00 43 1006.4
20260505001859 77 147 0.9 2.6 0.00 0.00 0.00 44 1006.3
20260505001355 78 158 3.5 7.8 0.00 0.00 0.00 44 1006.1
20260505000853 78 133 5.2 8.7 0.00 0.00 0.00 43 1006.1
20260505000351 79 151 3.5 7.0 0.00 0.00 0.00 42 1006.2
20260504235847 79 158 2.6 7.0 0.00 0.00 0.00 42 1006.4
20260504235344 79 246 7.0 8.7 0.00 0.00 0.00 41 1006.4
20260504234840 79 172 6.1 11.3 0.00 0.00 0.00 42 1006.3
20260504234338 79 217 5.2 11.3 0.00 0.00 0.00 40 1006.2
20260504233835 79 177 1.7 4.3 0.00 0.00 0.00 41 1006.4
20260504233330 79 154 2.6 11.3 0.00 0.00 0.00 41 1006.3
20260504232827 80 178 7.0 8.7 0.00 0.00 0.00 39 1006.1
20260504232324 80 242 4.3 7.0 0.00 0.00 0.00 39 1006.2
20260504231821 80 180 6.1 6.1 0.00 0.00 0.00 39 1006.2
20260504231318 80 161 6.1 12.2 0.00 0.00 0.00 38 1006.6
20260504230814 80 262 5.2 9.6 0.00 0.00 0.00 39 1006.3
20260504230312 80 177 7.8 13.9 0.00 0.00 0.00 39 1006.1
20260504225810 80 249 6.1 8.7 0.00 0.00 0.00 40 1006.1
20260504225306 80 180 2.6 9.6 0.00 0.00 0.00 40 1006.3
20260504224803 80 184 2.6 6.1 0.00 0.00 0.00 39 1006.2
20260504224301 81 207 7.8 14.8 0.00 0.00 0.00 38 1006.3
20260504223757 80 111 3.5 7.0 0.00 0.00 0.00 39 1006.1
20260504223253 81 218 3.5 8.7 0.00 0.00 0.00 38 1006.3
20260504222750 80 250 7.8 13.0 0.00 0.00 0.00 38 1006.3
20260504222246 80 216 5.2 7.0 0.00 0.00 0.00 39 1006.5
20260504221744 81 152 4.3 12.2 0.00 0.00 0.00 39 1006.5
20260504221241 81 189 7.0 19.1 0.00 0.00 0.00 38 1006.2
20260504220738 81 69 5.2 12.2 0.00 0.00 0.00 37 1006.4
20260504220235 81 151 7.0 12.2 0.00 0.00 0.00 39 1006.3
20260504215732 82 193 4.3 18.2 0.00 0.00 0.00 37 1006.6
20260504215229 81 179 3.5 5.2 0.00 0.00 0.00 38 1006.5
20260504214725 81 213 3.5 8.7 0.00 0.00 0.00 38 1006.5
20260504214221 81 242 6.1 13.9 0.00 0.00 0.00 37 1006.7
20260504213718 81 266 4.3 8.7 0.00 0.00 0.00 37 1006.7
20260504213209 81 187 6.1 11.3 0.00 0.00 0.00 37 1006.6
20260504212706 81 138 8.7 13.0 0.00 0.00 0.00 36 1006.6
20260504212203 81 169 2.6 9.6 0.00 0.00 0.00 38 1006.4
20260504211700 82 139 11.3 13.0 0.00 0.00 0.00 36 1006.6
20260504211155 81 240 4.3 11.3 0.00 0.00 0.00 37 1006.9
20260504210653 81 186 5.2 12.2 0.00 0.00 0.00 36 1006.8
20260504210150 82 150 1.7 13.0 0.00 0.00 0.00 35 1007.0
20260504205647 82 161 7.8 15.6 0.00 0.00 0.00 34 1006.9
20260504205144 82 213 2.6 13.0 0.00 0.00 0.00 35 1006.9
20260504204643 82 219 8.7 14.8 0.00 0.00 0.00 35 1007.1
20260504204141 82 261 7.8 9.6 0.00 0.00 0.00 35 1007.2
20260504203640 82 270 1.7 6.1 0.00 0.00 0.00 34 1007.0
20260504203137 82 227 3.5 11.3 0.00 0.00 0.00 35 1007.2
20260504202637 82 137 5.2 7.0 0.00 0.00 0.00 34 1007.0
20260504202135 82 117 4.3 8.7 0.00 0.00 0.00 35 1007.2
20260504201631 82 254 7.0 13.0 0.00 0.00 0.00 35 1007.4
20260504201129 82 134 6.1 7.8 0.00 0.00 0.00 34 1007.4
20260504200626 81 239 7.0 13.0 0.00 0.00 0.00 34 1007.4
20260504200123 81 89 5.2 13.9 0.00 0.00 0.00 34 1007.4
20260504195618 81 175 3.5 20.0 0.00 0.00 0.00 35 1007.4
20260504195115 81 244 2.6 13.9 0.00 0.00 0.00 35 1007.4
20260504194612 81 209 4.3 11.3 0.00 0.00 0.00 34 1007.5
20260504194107 81 158 9.6 12.2 0.00 0.00 0.00 35 1007.4
20260504193604 81 168 8.7 14.8 0.00 0.00 0.00 34 1007.3
20260504193103 81 262 6.1 14.8 0.00 0.00 0.00 34 1007.5
20260504192600 81 179 9.6 19.1 0.00 0.00 0.00 33 1007.5
20260504192058 81 140 3.5 8.7 0.00 0.00 0.00 34 1007.4
20260504191555 81 235 4.3 9.6 0.00 0.00 0.00 35 1007.6
20260504191046 81 208 7.8 13.9 0.00 0.00 0.00 34 1007.6
20260504190543 82 89 5.2 12.2 0.00 0.00 0.00 34 1007.5
20260504190039 81 294 5.2 13.0 0.00 0.00 0.00 32 1007.4
20260504185536 81 188 4.3 12.2 0.00 0.00 0.00 34 1007.7
20260504185032 81 194 4.3 13.0 0.00 0.00 0.00 33 1007.6
20260504184528 81 153 7.8 13.0 0.00 0.00 0.00 31 1007.6
20260504184023 81 228 4.3 7.8 0.00 0.00 0.00 36 1007.9
20260504183521 81 192 7.8 12.2 0.00 0.00 0.00 35 1007.9
20260504183019 81 166 2.6 13.0 0.00 0.00 0.00 32 1008.0
20260504182515 81 235 7.0 12.2 0.00 0.00 0.00 31 1008.3
20260504182013 80 145 5.2 12.2 0.00 0.00 0.00 34 1007.9
20260504181510 80 154 2.6 14.8 0.00 0.00 0.00 36 1008.2
20260504181009 80 131 3.5 18.2 0.00 0.00 0.00 35 1008.7
20260504180507 80 162 8.7 9.6 0.00 0.00 0.00 33 1008.8
20260504180005 80 239 10.4 15.6 0.00 0.00 0.00 34 1008.4
20260504175502 80 152 8.7 12.2 0.00 0.00 0.00 35 1008.4
20260504174959 80 192 10.4 14.8 0.00 0.00 0.00 34 1008.4
20260504174456 79 263 5.2 8.7 0.00 0.00 0.00 37 1008.4
20260504173953 79 235 5.2 8.7 0.00 0.00 0.00 36 1008.4
20260504173450 79 235 8.7 21.7 0.00 0.00 0.00 35 1008.9
20260504172948 79 209 6.1 12.2 0.00 0.00 0.00 38 1008.7
20260504172443 78 208 7.0 12.2 0.00 0.00 0.00 38 1008.6
20260504171940 78 184 7.8 11.3 0.00 0.00 0.00 38 1008.7
20260504171437 78 259 5.2 9.6 0.00 0.00 0.00 38 1008.8
20260504170934 78 237 4.3 8.7 0.00 0.00 0.00 40 1008.9
20260504170430 78 256 7.8 12.2 0.00 0.00 0.00 39 1009.1
20260504160349 76 179 3.5 15.6 0.00 0.00 0.00 41 1009.4
20260504150814 75 216 4.3 7.8 0.00 0.00 0.00 44 1009.8
20260504150311 75 265 1.7 5.2 0.00 0.00 0.00 44 1009.8
20260504141241 70 160 0.9 5.2 0.00 0.00 0.00 53 1010.1
20260504140737 70 213 1.7 4.3 0.00 0.00 0.00 54 1010.2
20260504140233 69 144 3.5 6.1 0.00 0.00 0.00 54 1010.3
20260504130702 63 133 0.0 0.0 0.00 0.00 0.00 74 1010.5
20260504130158 62 173 0.0 0.0 0.00 0.00 0.00 76 1010.7
20260504120122 56 138 0.0 0.0 0.00 0.00 0.00 90 1010.4
20260504110549 56 148 0.0 1.7 0.00 0.00 0.00 89 1010.0